Home > Weather > Weißenfels > Past weeks

Flag for Germany Past Weather in Weißenfels, Saxony-Anhalt, Germany — Yesterday and Last 2 Weeks

Now
61 °F

Light rain. Mostly cloudy.


Feels Like: 61 °F
Forecast: 57 / 72 °F
Wind: 8 mph from South

Location: Leipzig-Schkeuditz

Current Time: Jun 29, 2016 at 5:49:00 AM

Latest Report: Jun 29, 2016 at 5:20 AM


Visibility: N/A

Pressure: 29.89 "Hg

Humidity: 94%

Dew Point: 59 °F

Location of WeißenfelsLocation

Past Weather in Weißenfels — Graph

°F

Weißenfels Temperature Yesterday

Maximum temperature yesterday: 72 °F (at 2:50 PM)
Minimum temperature yesterday: 59 °F (at 11:20 PM)
Average temperature yesterday: 65 °F

High & Low Weather Summary for the Past Weeks

 TemperatureHumidityPressure
High93 °F (Jun 24, 2:50 PM)100% (Jun 14, 5:50 AM)30.24 "Hg (Jun 14, 5:50 AM)
Low48 °F (Jun 20, 5:20 AM)30% (Jun 24, 2:50 PM)29.47 "Hg (Jun 14, 4:20 PM)
Average66 °F72%29.95 "Hg
* Reported Jun 14 4:20 AM — Jun 29 4:20 AM, Weißenfels, Weather by CustomWeather, © 2016

Note: Actual official high and low records may vary slightly from our data, if they occured in-between our weather recording intervals... More about our weather records

Advertising

Weißenfels Weather History for the Previous 24 Hours

Scroll right to see more
 ConditionsComfort  
Time TempWeatherWind HumidityBarometerVisibility
4:20 AM
Wed, Jun 29
63 °FLight rain. Partly cloudy.12 mph83%29.89 "HgN/A
3:50 AM61 °FLight rain. Passing clouds.9 mph88%29.89 "HgN/A
3:20 AM61 °FLight rain. Overcast.6 mph88%29.89 "HgN/A
2:50 AM63 °FLight rain. Clear.7 mph77%29.89 "HgN/A
2:20 AM63 °FClear.5 mph77%29.92 "Hg10 mi
1:50 AM63 °FClear.7 mph73%29.92 "Hg10 mi
1:20 AM59 °FPassing clouds.8 mph82%29.92 "HgN/A
12:50 AM59 °FPassing clouds.7 mph82%29.95 "HgN/A
12:20 AM59 °FPassing clouds.7 mph77%29.95 "HgN/A
11:50 PM
Tue, Jun 28
61 °FPassing clouds.7 mph72%29.95 "HgN/A
11:20 PM59 °FClear.7 mph77%29.98 "Hg10 mi
10:50 PM61 °FPassing clouds.7 mph72%29.98 "HgN/A
10:20 PM63 °FPassing clouds.7 mph73%29.98 "HgN/A
9:50 PM64 °FPartly sunny.7 mph68%29.98 "HgN/A
9:20 PM66 °FScattered clouds.6 mph60%29.98 "HgN/A
8:50 PM66 °FSunny.6 mph64%29.98 "Hg10 mi
8:20 PM68 °FSunny.5 mph56%29.98 "Hg10 mi
7:50 PM68 °FSunny.6 mph56%30.01 "Hg10 mi
7:20 PM68 °FSunny.3 mph53%30.01 "Hg10 mi
6:50 PM68 °FPassing clouds.5 mph56%30.01 "HgN/A
6:20 PM68 °FSunny.6 mph56%30.01 "Hg10 mi
5:50 PM68 °FSunny.7 mph56%30.01 "Hg10 mi
5:20 PM70 °FSunny.7 mph53%30.01 "Hg10 mi
4:50 PM70 °FPassing clouds.7 mph46%30.01 "HgN/A
4:20 PM72 °FMild.6 mph44%30.01 "HgN/A
3:50 PM72 °FSunny.5 mph47%30.04 "Hg10 mi
3:20 PM72 °FSunny.6 mph53%30.04 "Hg10 mi
2:50 PM72 °FPartly sunny.6 mph50%30.04 "HgN/A
2:20 PM68 °FPartly sunny.7 mph56%30.07 "HgN/A
1:50 PM70 °FPartly sunny.5 mph57%30.07 "HgN/A
1:20 PM70 °FPartly sunny.6 mph53%30.07 "HgN/A
12:50 PM68 °FBroken clouds.7 mph56%30.07 "HgN/A
12:20 PM68 °FBroken clouds.9 mph53%30.07 "HgN/A
11:50 AM66 °FBroken clouds.6 mph60%30.09 "HgN/A
11:20 AM64 °FBroken clouds.8 mph64%30.09 "HgN/A
10:50 AM64 °FPartly sunny.9 mph68%30.09 "HgN/A
10:20 AM63 °FPartly sunny.10 mph73%30.09 "HgN/A
9:50 AM63 °FPartly sunny.9 mph73%30.07 "HgN/A
9:20 AM61 °FPartly sunny.9 mph83%30.07 "HgN/A
8:50 AM61 °FPartly sunny.9 mph77%30.07 "HgN/A
8:20 AM61 °FPartly sunny.12 mph77%30.07 "HgN/A
7:50 AM61 °FPartly sunny.12 mph83%30.07 "HgN/A
7:20 AM61 °FPartly sunny.12 mph83%30.07 "HgN/A
6:50 AM61 °FPartly sunny.10 mph88%30.07 "HgN/A
6:20 AM63 °FBroken clouds.9 mph83%30.07 "HgN/A
5:50 AM61 °FPassing clouds.9 mph88%30.07 "HgN/A
5:20 AM61 °FPassing clouds.9 mph88%30.07 "HgN/A
Weather by CustomWeather, © 2016

See weather overviewHow to use our weather pages